Location: *
(13.0000°N, 151.6000°E)
Time: 15:56:16
(UTC+00:00)

Meteor 1-31 Rocket - Pass Details

Date: 01 April 2020
Orbit: 520 x 548 km, 97.6° (Epoch: 03 June)

Event Time Altitude Azimuth Distance (km) Brightness Sun altitude
Rises 18:03:45 0° 17° (NNE) 2,704 6.7 -26.2°
Reaches altitude 10° 18:05:54 10° 21° (NNE) 1,809 5.8 -25.7°
Maximum altitude 18:09:45 57° 101° (E) 638 3.3 -24.8°
Enters shadow 18:10:21 51° 139° (SE) 689 3.4 -24.7°
